Weather History for Palmdale, CA

Change the Weather History Date:

Sunday, September 16, 2012

  Actual Average Record
Temperature  
Mean Temperature 79 °F 74 °F  
Max Temperature 96 °F 91 °F 103 °F (1971)
Min Temperature 62 °F 57 °F 44 °F (1970)
Degree Days  
Heating Degree Days 0 0  
Month to date heating degree days 0 0  
Since 1 July heating degree days 0 0  
Cooling Degree Days 14 9  
Month to date cooling degree days 254 179  
Year to date cooling degree days 2008 1661  
Growing Degree Days 28 (Base 50)    
Moisture  
Dew Point 38 °F    
Average Humidity 24    
Maximum Humidity 36    
Minimum Humidity 12    
Precipitation  
Precipitation 0.00 in 0.01 in 0.03 in (1989)
Month to date precipitation T 0.14  
Year to date precipitation 1.79 5.70  
Since 1 July precipitation T 0.38  
Snow  
Snow 0.00 in - 0.00 in (1973)
Month to date snowfall 0.0  
Since 1 July snowfall 0.0  
Since 1 September snowfall 0.0  
Snow Depth 0.00 in    
Sea Level Pressure  
Sea Level Pressure 29.98 in    
Wind  
Wind Speed 9 mph (SW)    
Max Wind Speed 24 mph    
Max Gust Speed 28 mph    
Visibility 10 miles    
Events      
T = Trace of Precipitation, MM = Missing Value Source: NWS Daily Summary

Daily Weather History Graph

Daily Weather History Graph

Search for Another Location

Airport:

Trip Planner

Search our weather history database for the weather conditions in past years. The results will help you decide how hot, cold, wet, or windy it might be!

Date:

Astronomy

Sep. 16, 2012 Rise Set
Actual Time 6:36 AM PDT 6:56 PM PDT
Civil Twilight 6:11 AM PDT 7:22 PM PDT
Nautical Twilight 5:41 AM PDT 7:51 PM PDT
Astronomical Twilight 5:11 AM PDT 8:21 PM PDT
Moon 7:16 AM PDT (9/16) 7:10 PM PDT (9/16)
Length of Visible Light 13h 10m
Length of Day
12h 20m
New Moon, 1% of the Moon is Illuminated
Sep 16
New Moon
Sep 22
First Quarter
Sep 29
Full
Oct 8
Last Quarter
Oct 15
New

Hourly Weather History & Observations

Time (PDT) Temp. Dew Point Humidity Pressure Visibility Wind Dir Wind Speed Gust Speed Precip Events Conditions
12:53 AM 71.1 °F 34.0 °F 26% 30.01 in 10.0 mi SW 4.6 mph - N/A   Clear
1:53 AM 75.0 °F 37.0 °F 25% 30.00 in 10.0 mi WSW 8.1 mph - N/A   Clear
2:53 AM 71.1 °F 36.0 °F 28% 30.00 in 10.0 mi SW 6.9 mph - N/A   Clear
3:53 AM 69.1 °F 36.0 °F 30% 30.00 in 10.0 mi South 4.6 mph - N/A   Clear
4:53 AM 68.0 °F 35.6 °F 30% 30.08 in 10.0 mi SSW 6.9 mph - N/A   Clear
5:53 AM 66.9 °F 37.0 °F 33% 30.00 in 10.0 mi Calm Calm - N/A   Clear
6:53 AM 62.1 °F 35.1 °F 37% 30.03 in 10.0 mi South 4.6 mph - N/A   Clear
7:53 AM 72.0 °F 37.0 °F 28% 30.03 in 10.0 mi Calm Calm - N/A   Clear
8:53 AM 80.1 °F 37.9 °F 22% 30.03 in 10.0 mi Calm Calm - N/A   Clear
9:53 AM 87.1 °F 37.0 °F 17% 30.02 in 10.0 mi Calm Calm - N/A   Clear
10:53 AM 90.0 °F 35.1 °F 14% 30.02 in 10.0 mi Calm Calm - N/A   Clear
11:53 AM 91.0 °F 33.1 °F 13% 30.00 in 10.0 mi Variable 5.8 mph - N/A   Clear
12:53 PM 93.9 °F 33.1 °F 12% 29.98 in 10.0 mi Variable 3.5 mph - N/A   Clear
1:53 PM 93.9 °F 32.0 °F 11% 29.95 in 10.0 mi East 4.6 mph - N/A   Clear
2:53 PM 93.9 °F 36.0 °F 13% 29.93 in 10.0 mi WSW 17.3 mph 23.0 mph N/A   Clear
3:53 PM 93.9 °F 37.0 °F 14% 29.91 in 10.0 mi West 13.8 mph 20.7 mph N/A   Clear
4:53 PM 91.9 °F 37.9 °F 15% 29.91 in 10.0 mi WSW 18.4 mph - N/A   Clear
5:53 PM 88.0 °F 41.0 °F 19% 29.92 in 10.0 mi SW 17.3 mph 25.3 mph N/A   Clear
6:53 PM 84.0 °F 45.0 °F 25% 29.94 in 10.0 mi SW 18.4 mph - N/A   Clear
7:53 PM 81.0 °F 45.0 °F 28% 29.96 in 10.0 mi SW 19.6 mph - N/A   Clear
8:53 PM 79.0 °F 45.0 °F 30% 29.96 in 10.0 mi SW 17.3 mph - N/A   Clear
9:53 PM 78.1 °F 43.0 °F 29% 29.96 in 10.0 mi SSW 11.5 mph - N/A   Clear
10:53 PM 78.1 °F 43.0 °F 29% 29.96 in 10.0 mi SW 12.7 mph - N/A   Clear
11:53 PM 77.0 °F 44.1 °F 31% 29.96 in 10.0 mi SW 15.0 mph - N/A   Clear